Greensboro Piedmont-Triad Airport (GSO)

 

Airport Diagram
Current Weather/Forecast (LIFR Conditions)
METAR KGSO 231320Z 19007KT 1 3/4SM +RA BR BKN004 OVC011 20/20 A3028 RMK AO2 RAB04 P0002 T02000200
TAF KGSO 231254Z 2313/2412 12009KT P6SM SCT007 BKN025 TEMPO 2313/2314 2SM -RA BR BKN006 FM231700 24010G18KT P6SM BKN035 FM240000 25004KT P6SM SCT040 BKN250

All Charts
General
Chart Name Download
AIRPORT DIAGRAM
TAKEOFF MINIMUMS
ALTERNATE MINIMUMS

Departures
Chart Name Download
QUAKER SEVEN
TRIAD NINE
TRSHA ONE (RNAV)

Arrivals
Chart Name Download
BLOCC TWO
BROOK THREE
HENBY THREE
SMOKN THREE
TRAKS TWO (RNAV)

Approaches
Chart Name Download
ILS OR LOC RWY 05L
ILS OR LOC RWY 05R
ILS OR LOC RWY 23L
ILS OR LOC RWY 23R
ILS Y OR LOC/DME Y RWY 32
ILS Z OR LOC/DME Z RWY 32
ILS RWY 23L (CAT II)
ILS RWY 05L (CAT II - III)
ILS RWY 05R (SA CAT II)
RNAV (GPS) RWY 05L
RNAV (GPS) RWY 05R
RNAV (GPS) RWY 14
RNAV (GPS) RWY 23L
RNAV (GPS) RWY 23R
RNAV (GPS) RWY 32
VOR/DME RWY 23L


Inbound Traffic (Arrivals)

No inbound traffic.


Outbound Traffic (Departures)

No outbound traffic.